• In Belarus
  • List of Countries
  • For 7 days
  • Water Temperature
  • Satellite Maps
  • Weather Map
  • Weather Widgets
  • user-avatar
    Login

    Hourly Weather Escaldes-Engordany

    Today, 20 March, Wednesday

    Time Temperature Precipitation Wind Pressure Humidity
    00:00 -2°C° 0 mm 3 mps 642 mmHg 82%
    01:00 -2°C° 0.1 mm 3 mps 642 mmHg 82%
    02:00 -4°C° 0.1 mm 3 mps 642 mmHg 82%
    03:00 -4°C° 0.1 mm 3 mps 642 mmHg 82%
    04:00 -4°C° 0 mm 3 mps 642 mmHg 83%
    05:00 -4°C° 0 mm 2 mps 641 mmHg 85%
    06:00 -5°C° 0 mm 3 mps 641 mmHg 84%
    07:00 -4°C° 0 mm 3 mps 642 mmHg 73%
    08:00 -1°C° 0 mm 3 mps 643 mmHg 61%
    09:00 +1°C° 0 mm 3 mps 643 mmHg 50%
    10:00 +3°C° 0 mm 3 mps 644 mmHg 45%
    11:00 +5°C° 0 mm 2 mps 644 mmHg 41%
    12:00 +7°C° 0 mm 2 mps 645 mmHg 36%
    13:00 +7°C° 0 mm 2 mps 645 mmHg 37%
    14:00 +7°C° 0 mm 2 mps 644 mmHg 38%
    15:00 +7°C° 0 mm 2 mps 644 mmHg 40%
    16:00 +4°C° 0 mm 2 mps 643 mmHg 49%
    17:00 +2°C° 0 mm 2 mps 643 mmHg 59%
    18:00 +1°C° 0 mm 1 mps 642 mmHg 69%
    19:00 0°C° 0 mm 1 mps 642 mmHg 73%
    20:00 0°C° 0 mm 1 mps 642 mmHg 77%
    21:00 -3°C° 0 mm 2 mps 642 mmHg 81%
    22:00 -3°C° 0 mm 2 mps 642 mmHg 78%
    23:00 -4°C° 0 mm 2 mps 642 mmHg 75%

    Tomorrow, 21 March, Thursday

    Time Temperature Precipitation Wind Pressure Humidity
    00:00 -4°C° 0 mm 2 mps 642 mmHg 73%
    01:00 -4°C° 0 mm 2 mps 642 mmHg 72%
    02:00 -2°C° 0 mm 1 mps 642 mmHg 71%
    03:00 -2°C° 0 mm 1 mps 642 mmHg 71%
    04:00 -2°C° 0 mm 1 mps 642 mmHg 70%
    05:00 -2°C° 0 mm 1 mps 642 mmHg 70%
    06:00 -2°C° 0 mm 1 mps 642 mmHg 69%
    07:00 +1°C° 0 mm 1 mps 643 mmHg 58%
    08:00 +4°C° 0 mm 1 mps 644 mmHg 47%
    09:00 +7°C° 0 mm 1 mps 646 mmHg 36%
    10:00 +8°C° 0 mm 1 mps 646 mmHg 34%
    11:00 +10°C° 0 mm 1 mps 646 mmHg 33%
    12:00 +11°C° 0 mm 1 mps 646 mmHg 31%
    13:00 +11°C° 0 mm 1 mps 646 mmHg 32%
    14:00 +11°C° 0 mm 1 mps 645 mmHg 33%
    15:00 +10°C° 0 mm 1 mps 645 mmHg 33%
    16:00 +8°C° 0 mm 1 mps 644 mmHg 41%
    17:00 +6°C° 0 mm 1 mps 643 mmHg 48%
    18:00 +2°C° 0 mm 0 mps 642 mmHg 55%
    19:00 +2°C° 0 mm 0 mps 643 mmHg 56%
    20:00 +2°C° 0 mm 1 mps 643 mmHg 57%
    21:00 +1°C° 0 mm 1 mps 643 mmHg 57%
    22:00 +1°C° 0 mm 1 mps 643 mmHg 55%
    23:00 +1°C° 0 mm 1 mps 643 mmHg 53%

    Day after tomorrow, 22 March, Friday

    Time Temperature Precipitation Wind Pressure Humidity
    00:00 +1°C° 0 mm 1 mps 643 mmHg 50%
    01:00 +1°C° 0 mm 1 mps 643 mmHg 48%
    02:00 +1°C° 0 mm 1 mps 643 mmHg 46%
    03:00 +1°C° 0 mm 1 mps 643 mmHg 44%
    04:00 +1°C° 0 mm 1 mps 643 mmHg 44%
    05:00 +1°C° 0 mm 1 mps 643 mmHg 44%
    06:00 +1°C° 0 mm 1 mps 643 mmHg 44%
    07:00 +4°C° 0 mm 1 mps 644 mmHg 41%
    08:00 +7°C° 0 mm 1 mps 645 mmHg 39%
    09:00 +10°C° 0 mm 1 mps 646 mmHg 36%
    10:00 +11°C° 0 mm 1 mps 647 mmHg 36%
    11:00 +12°C° 0 mm 1 mps 647 mmHg 36%
    12:00 +14°C° 0 mm 1 mps 647 mmHg 36%
    13:00 +13°C° 0 mm 1 mps 647 mmHg 39%
    14:00 +13°C° 0 mm 1 mps 646 mmHg 41%
    15:00 +12°C° 0 mm 1 mps 645 mmHg 44%
    16:00 +10°C° 0 mm 1 mps 645 mmHg 51%
    17:00 +8°C° 0 mm 1 mps 644 mmHg 58%
    18:00 +6°C° 0 mm 0 mps 644 mmHg 65%
    19:00 +6°C° 0 mm 1 mps 644 mmHg 67%
    20:00 +5°C° 0 mm 1 mps 644 mmHg 70%
    21:00 +4°C° 0 mm 1 mps 644 mmHg 72%
    22:00 +4°C° 0 mm 1 mps 643 mmHg 72%
    23:00 +4°C° 0 mm 1 mps 643 mmHg 72%

    23 March, Saturday

    Time Temperature Precipitation Wind Pressure Humidity
    00:00 +4°C° 0 mm 1 mps 643 mmHg 71%
    01:00 +4°C° 0 mm 1 mps 643 mmHg 70%
    02:00 +3°C° 0 mm 1 mps 643 mmHg 68%
    03:00 +3°C° 0 mm 1 mps 643 mmHg 67%
    04:00 +3°C° 0 mm 1 mps 643 mmHg 64%
    05:00 +3°C° 0 mm 1 mps 643 mmHg 62%
    06:00 +3°C° 0 mm 1 mps 643 mmHg 59%
    07:00 +6°C° 0 mm 1 mps 644 mmHg 50%
    08:00 +9°C° 0 mm 1 mps 645 mmHg 42%
    09:00 +11°C° 0 mm 0 mps 646 mmHg 33%
    10:00 +13°C° 0 mm 1 mps 646 mmHg 31%
    11:00 +14°C° 0 mm 1 mps 646 mmHg 30%
    12:00 +15°C° 0 mm 1 mps 646 mmHg 28%
    13:00 +15°C° 0 mm 1 mps 646 mmHg 29%
    14:00 +15°C° 0 mm 1 mps 645 mmHg 30%
    15:00 +14°C° 0 mm 1 mps 644 mmHg 31%
    16:00 +12°C° 0 mm 1 mps 644 mmHg 39%
    17:00 +10°C° 0 mm 1 mps 643 mmHg 46%
    18:00 +8°C° 0 mm 1 mps 642 mmHg 54%
    19:00 +7°C° 0 mm 1 mps 642 mmHg 57%
    20:00 +6°C° 0 mm 1 mps 642 mmHg 60%
    21:00 +4°C° 0 mm 0 mps 642 mmHg 63%
    22:00 +4°C° 0 mm 0 mps 641 mmHg 63%
    23:00 +4°C° 0 mm 1 mps 641 mmHg 64%

    24 March, Sunday

    Time Temperature Precipitation Wind Pressure Humidity
    00:00 +4°C° 0 mm 1 mps 641 mmHg 65%
    01:00 +4°C° 0 mm 1 mps 641 mmHg 65%
    02:00 +4°C° 0 mm 1 mps 641 mmHg 65%
    03:00 +4°C° 0 mm 1 mps 641 mmHg 65%
    04:00 +4°C° 0 mm 1 mps 641 mmHg 66%
    05:00 +4°C° 0 mm 1 mps 641 mmHg 66%
    06:00 +4°C° 0 mm 1 mps 641 mmHg 66%
    07:00 +6°C° 0 mm 1 mps 642 mmHg 58%
    08:00 +9°C° 0 mm 1 mps 643 mmHg 50%
    09:00 +11°C° 0 mm 1 mps 644 mmHg 42%
    10:00 +12°C° 0 mm 1 mps 644 mmHg 39%
    11:00 +13°C° 0 mm 1 mps 644 mmHg 37%
    12:00 +14°C° 0 mm 1 mps 644 mmHg 34%
    13:00 +14°C° 0 mm 1 mps 644 mmHg 36%
    14:00 +13°C° 0 mm 1 mps 643 mmHg 38%
    15:00 +13°C° 0 mm 1 mps 643 mmHg 40%
    16:00 +11°C° 0 mm 1 mps 642 mmHg 46%
    17:00 +10°C° 0 mm 1 mps 642 mmHg 53%
    18:00 +7°C° 0 mm 0 mps 641 mmHg 59%
    19:00 +7°C° 0 mm 1 mps 641 mmHg 62%
    20:00 +6°C° 0 mm 1 mps 641 mmHg 66%
    21:00 +5°C° 0 mm 1 mps 641 mmHg 70%
    22:00 +4°C° 0 mm 1 mps 640 mmHg 69%
    23:00 +4°C° 0 mm 1 mps 640 mmHg 69%

    25 March, Monday

    Time Temperature Precipitation Wind Pressure Humidity
    00:00 +4°C° 0 mm 1 mps 640 mmHg 69%
    01:00 +4°C° 0 mm 1 mps 640 mmHg 68%
    02:00 +4°C° 0 mm 1 mps 640 mmHg 66%
    03:00 +3°C° 0 mm 1 mps 639 mmHg 65%
    04:00 +3°C° 0 mm 1 mps 639 mmHg 64%
    05:00 +3°C° 0 mm 1 mps 639 mmHg 63%
    06:00 +3°C° 0 mm 1 mps 639 mmHg 62%
    07:00 +6°C° 0 mm 1 mps 640 mmHg 52%
    08:00 +9°C° 0 mm 1 mps 642 mmHg 43%
    09:00 +10°C° 0 mm 0 mps 643 mmHg 34%
    10:00 +12°C° 0 mm 1 mps 643 mmHg 33%
    11:00 +14°C° 0 mm 1 mps 643 mmHg 32%
    12:00 +15°C° 0 mm 1 mps 643 mmHg 31%
    13:00 +14°C° 0 mm 1 mps 643 mmHg 35%
    14:00 +14°C° 0 mm 1 mps 642 mmHg 38%
    15:00 +13°C° 0 mm 2 mps 641 mmHg 42%
    16:00 +12°C° 0.1 mm 2 mps 641 mmHg 52%
    17:00 +9°C° 0.1 mm 2 mps 640 mmHg 63%
    18:00 +9°C° 0.1 mm 1 mps 640 mmHg 74%
    19:00 +7°C° 0 mm 2 mps 640 mmHg 79%
    20:00 +6°C° 0 mm 2 mps 640 mmHg 84%
    21:00 +5°C° 0 mm 2 mps 640 mmHg 89%
    22:00 +4°C° 0 mm 2 mps 640 mmHg 90%
    23:00 +3°C° 0 mm 2 mps 639 mmHg 90%
    Show more